H1 CPF 2 NER 2024 6 12 9 164 01 glonass129 H2 1106402 9129 37868 2024 6 12 0 0 0 2024 6 15 23 45 0 900 1 1 0 0 0 1 H9 10 0 60473 0.00000 0 4437423.072 -9955713.024 23102578.693 10 0 60473 900.00000 0 7161802.966 -9237455.597 22709243.950 10 0 60473 1800.00000 0 9858403.144 -8736292.291 21876585.996 10 0 60473 2700.00000 0 12457993.370 -8451476.634 20620472.895 10 0 60473 3600.00000 0 14893630.983 -8370046.291 18964962.442 10 0 60473 4500.00000 0 17103230.762 -8467483.929 16941862.286 10 0 60473 5400.00000 0 19031949.567 -8708877.714 14590140.277 10 0 60473 6300.00000 0 20634287.015 -9050534.582 11955194.084 10 0 60473 7200.00000 0 21875814.281 -9441980.146 9087991.993 10 0 60473 8100.00000 0 22734457.764 -9828262.354 6044099.648 10 0 60473 9000.00000 0 23201282.344 -10152462.491 2882610.208 10 0 60473 9900.00000 0 23280739.502 -10358307.409 -335001.996 10 0 60473 10800.00000 0 22990368.000 -10392771.657 -3546082.060 10 0 60473 11700.00000 0 22359958.120 -10208557.720 -6688025.389 10 0 60473 12600.00000 0 21430213.491 -9766346.987 -9699513.569 10 0 60473 13500.00000 0 20250966.435 -9036723.315 -12521729.474 10 0 60473 14400.00000 0 18879022.299 -8001684.705 -15099525.900 10 0 60473 15300.00000 0 17375724.583 -6655676.154 -17382522.830 10 0 60473 16200.00000 0 15804344.973 -5006097.330 -19326109.931 10 0 60473 17100.00000 0 14227410.088 -3073261.438 -20892333.032 10 0 60473 18000.00000 0 12704079.439 -889805.460 -22050645.933 10 0 60473 18900.00000 0 11287686.716 1500424.317 -22778512.048 10 0 60473 19800.00000 0 10023549.179 4043964.904 -23061843.821 10 0 60473 20700.00000 0 8947137.968 6679740.219 -22895271.467 10 0 60473 21600.00000 0 8082686.257 9341391.086 -22282236.415 10 0 60473 22500.00000 0 7442292.939 11959833.292 -21234908.537 10 0 60473 23400.00000 0 7025558.033 14465935.885 -19773930.037 10 0 60473 24300.00000 0 6819762.985 16793207.218 -17927992.354 10 0 60473 25200.00000 0 6800585.734 18880376.367 -15733255.818 10 0 60473 26100.00000 0 6933317.653 20673762.380 -13232624.904 10 0 60473 27000.00000 0 7174528.337 22129333.326 -10474894.609 10 0 60473 27900.00000 0 7474105.538 23214370.611 -7513785.914 10 0 60473 28800.00000 0 7777582.087 23908670.978 -4406890.244 10 0 60473 29700.00000 0 8028650.108 24205238.371 -1214544.320 10 0 60473 30600.00000 0 8171755.492 24110439.357 2001342.187 10 0 60473 31500.00000 0 8154662.924 23643618.231 5178483.203 10 0 60473 32400.00000 0 7930883.594 22836190.353 8255414.029 10 0 60473 33300.00000 0 7461864.043 21730253.679 11172667.789 10 0 60473 34200.00000 0 6718845.032 20376777.947 13873908.774 10 0 60473 35100.00000 0 5684313.346 18833447.956 16307002.201 10 0 60473 36000.00000 0 4352986.481 17162250.980 18425001.408 10 0 60473 36900.00000 0 2732289.435 15426908.271 20187035.247 10 0 60473 37800.00000 0 842303.565 13690256.440 21559080.434 10 0 60473 38700.00000 0 -1284811.149 12011686.039 22514605.701 10 0 60473 39600.00000 0 -3605897.815 10444742.072 23035076.697 10 0 60473 40500.00000 0 -6068345.476 9034984.394 23110312.926 10 0 60473 41400.00000 0 -8612031.635 7818195.358 22738690.184 10 0 60473 42300.00000 0 -11171586.754 6819008.200 21927184.372 10 0 60473 43200.00000 0 -13678889.753 6050012.657 20691254.938 10 0 60473 44100.00000 0 -16065693.745 5511375.204 19054568.709 10 0 60473 45000.00000 0 -18266275.253 5190990.447 17048567.496 10 0 60473 45900.00000 0 -20219998.427 5065158.511 14711885.557 10 0 60473 46800.00000 0 -21873688.368 5099761.524 12089625.811 10 0 60473 47700.00000 0 -23183714.502 5251891.354 9232506.587 10 0 60473 48600.00000 0 -24117696.178 5471861.470 6195893.512 10 0 60473 49500.00000 0 -24655757.552 5705519.020 3038733.918 10 0 60473 50400.00000 0 -24791277.202 5896759.797 -177586.308 10 0 60473 51300.00000 0 -24531098.807 5990139.238 -3390441.263 10 0 60473 52200.00000 0 -23895192.048 5933467.676 -6537195.037 10 0 60473 53100.00000 0 -22915776.282 5680277.916 -9556437.975 10 0 60473 54000.00000 0 -21635942.848 5192058.018 -12389203.402 10 0 60473 54900.00000 0 -20107833.656 4440151.805 -14980139.109 10 0 60473 55800.00000 0 -18390453.140 3407243.641 -17278608.628 10 0 60473 56700.00000 0 -16547206.751 2088361.835 -19239698.821 10 0 60473 57600.00000 0 -14643271.032 491355.836 -20825112.423 10 0 60473 58500.00000 0 -12742907.697 -1363174.798 -22003926.760 10 0 60473 59400.00000 0 -10906836.268 -3442497.894 -22753202.998 10 0 60473 60300.00000 0 -9189777.112 -5702887.223 -23058433.671 10 0 60473 61200.00000 0 -7638268.924 -8091234.273 -22913819.892 10 0 60473 62100.00000 0 -6288852.517 -10547065.068 -22322373.394 10 0 60473 63000.00000 0 -5166696.575 -13004876.775 -21295842.351 10 0 60473 63900.00000 0 -4284721.733 -15396695.287 -19854463.615 10 0 60473 64800.00000 0 -3643257.758 -17654745.953 -18026547.587 10 0 60473 65700.00000 0 -3230245.585 -19714125.251 -15847905.317 10 0 60473 66600.00000 0 -3021972.837 -21515361.487 -13361130.469 10 0 60473 67500.00000 0 -2984308.753 -23006757.872 -10614751.635 10 0 60473 68400.00000 0 -3074383.590 -24146420.944 -7662272.782 10 0 60473 69300.00000 0 -3242639.078 -24903890.956 -4561121.693 10 0 60473 70200.00000 0 -3435161.350 -25261307.983 -1371527.722 10 0 60473 71100.00000 0 -3596196.450 -25214067.196 1844648.764 10 0 60473 72000.00000 0 -3670741.493 -24770938.280 5025112.286 10 0 60473 72900.00000 0 -3607102.047 -23953646.290 8108330.489 10 0 60473 73800.00000 0 -3359308.382 -22795933.502 11034712.140 10 0 60473 74700.00000 0 -2889289.646 -21342142.983 13747743.059 10 0 60473 75600.00000 0 -2168715.574 -19645383.972 16195059.433 10 0 60473 76500.00000 0 -1180429.354 -17765355.791 18329439.460 10 0 60473 77400.00000 0 80587.670 -15765920.510 20109695.994 10 0 60473 78300.00000 0 1606759.575 -13712524.259 21501454.873 10 0 60473 79200.00000 0 3377987.182 -11669572.773 22477805.633 10 0 60473 80100.00000 0 5362245.165 -9697868.301 23019813.505 10 0 60473 81000.00000 0 7516681.872 -7852212.261 23116883.797 10 0 60473 81900.00000 0 9789178.457 -6179271.252 22766972.064 10 0 60473 82800.00000 0 12120305.299 -4715793.559 21976635.775 10 0 60473 83700.00000 0 14445597.389 -3487249.146 20760925.619 10 0 60473 84600.00000 0 16698057.085 -2506949.332 19143117.086 10 0 60473 85500.00000 0 18810782.664 -1775682.990 17154285.556 10 0 60474 0.00000 0 20719615.171 -1281885.241 14832731.079 10 0 60474 900.00000 0 22365695.391 -1002332.508 12223260.304 10 0 60474 1800.00000 0 23697822.087 -903336.744 9376340.389 10 0 60474 2700.00000 0 24674515.739 -942389.107 6347135.227 10 0 60474 3600.00000 0 25265697.424 -1070185.603 3194444.263 10 0 60474 4500.00000 0 25453911.523 -1232949.449 -20437.433 10 0 60474 5400.00000 0 25235038.427 -1374951.921 -3234915.581 10 0 60474 6300.00000 0 24618464.886 -1441124.135 -6386325.765 10 0 60474 7200.00000 0 23626702.714 -1379647.539 -9413169.979 10 0 60474 8100.00000 0 22294470.217 -1144411.087 -12256334.874 10 0 60474 9000.00000 0 20667274.018 -697228.339 -14860266.028 10 0 60474 9900.00000 0 18799550.707 -9717.635 -17174073.158 10 0 60474 10800.00000 0 16752446.960 935237.041 -19152542.783 10 0 60474 11700.00000 0 14591332.506 2142508.904 -20757036.817 10 0 60474 12600.00000 0 12383151.913 3604278.231 -21956258.176 10 0 60474 13500.00000 0 10193727.955 5300129.773 -22726867.604 10 0 60474 14400.00000 0 8085131.167 7197694.416 -23053939.293 10 0 60474 15300.00000 0 6113226.969 9253808.297 -22931246.502 10 0 60474 16200.00000 0 4325503.685 11416140.322 -22361372.165 10 0 60474 17100.00000 0 2759272.189 13625219.028 -21355643.246 10 0 60474 18000.00000 0 1440311.653 15816772.793 -19933891.297 10 0 60474 18900.00000 0 382016.346 17924284.316 -18124045.291 10 0 60474 19800.00000 0 -414923.183 19881651.531 -15961566.126 10 0 60474 20700.00000 0 -962294.083 21625842.952 -13488735.348 10 0 60474 21600.00000 0 -1283603.074 23099436.203 -10753813.387 10 0 60474 22500.00000 0 -1412821.362 24252933.863 -7810085.041 10 0 60474 23400.00000 0 -1392688.452 25046760.613 -4714811.925 10 0 60474 24300.00000 0 -1272648.986 25452859.502 -1528113.201 10 0 60474 25200.00000 0 -1106511.583 25455822.333 1688203.135 10 0 60474 26100.00000 0 -949929.755 25053508.901 4871835.406 10 0 60474 27000.00000 0 -857811.766 24257131.246 7961186.875 10 0 60474 27900.00000 0 -881768.531 23090801.323 10896545.216 10 0 60474 28800.00000 0 -1067706.504 21590562.529 13621220.951 10 0 60474 29700.00000 0 -1453665.847 19802946.547 16082624.271 10 0 60474 30600.00000 0 -2067993.683 17783116.004 18233261.078 10 0 60474 31500.00000 0 -2927928.088 15592670.006 20031630.858 10 0 60474 32400.00000 0 -4038651.503 13297202.803 21443010.927 10 0 60474 33300.00000 0 -5392853.085 10963715.431 22440113.693 10 0 60474 34200.00000 0 -6970818.805 8657985.820 23003605.675 10 0 60474 35100.00000 0 -8741046.818 6442004.257 23122479.291 10 0 60474 36000.00000 0 -10661364.433 4371578.385 22794270.694 10 0 60474 36900.00000 0 -12680502.644 2494205.177 22025119.244 10 0 60474 37800.00000 0 -14740065.534 847296.722 20829666.639 10 0 60474 38700.00000 0 -16776815.536 -543167.420 19230796.215 10 0 60474 39600.00000 0 -18725182.074 -1663505.462 17259215.530 10 0 60474 40500.00000 0 -20519891.337 -2512679.867 14952888.050 10 0 60474 41400.00000 0 -22098609.010 -3102109.762 12356322.577 10 0 60474 42300.00000 0 -23404486.268 -3454955.958 9519731.900 10 0 60474 43200.00000 0 -24388502.290 -3604907.353 6498075.054 10 0 60474 44100.00000 0 -25011504.043 -3594518.591 3350000.279 10 0 60474 45000.00000 0 -25245855.902 -3473168.328 136708.397 10 0 60474 45900.00000 0 -25076627.436 -3294724.102 -3079241.416 10 0 60474 46800.00000 0 -24502266.800 -3115013.070 -6235159.690 10 0 60474 47700.00000 0 -23534728.867 -2989206.876 -9269463.456 10 0 60474 48600.00000 0 -22199050.500 -2969233.327 -12122895.967 10 0 60474 49500.00000 0 -20532389.199 -3101326.924 -14739703.670 10 0 60474 50400.00000 0 -18582564.689 -3423824.714 -17068745.301 10 0 60474 51300.00000 0 -16406164.601 -3965303.569 -19064509.506 10 0 60474 52200.00000 0 -14066294.363 -4743140.300 -20688019.387 10 0 60474 53100.00000 0 -11630066.863 -5762557.652 -21907604.920 10 0 60474 54000.00000 0 -9165938.529 -7016198.129 -22699527.297 10 0 60474 54900.00000 0 -6741004.870 -8484244.644 -23048442.608 10 0 60474 55800.00000 0 -4418369.967 -10135083.256 -22947695.899 10 0 60474 56700.00000 0 -2254700.756 -11926479.879 -22399440.391 10 0 60474 57600.00000 0 -298068.502 -13807220.817 -21414580.432 10 0 60474 58500.00000 0 1413832.774 -15719147.112 -20012540.467 10 0 60474 59400.00000 0 2855017.855 -17599496.204 -18220865.898 10 0 60474 60300.00000 0 4012038.229 -19383451.479 -16074665.090 10 0 60474 61200.00000 0 4884274.404 -21006791.886 -13615904.905 10 0 60474 62100.00000 0 5483683.572 -22408529.949 -10892574.944 10 0 60474 63000.00000 0 5834016.589 -23533427.517 -7957738.114 10 0 60474 63900.00000 0 5969540.515 -24334284.191 -4868487.161 10 0 60474 64800.00000 0 5933323.488 -24773903.453 -1684828.398 10 0 60474 65700.00000 0 5775156.685 -24826655.478 1531485.109 10 0 60474 66600.00000 0 5549202.792 -24479572.794 4718147.926 10 0 60474 67500.00000 0 5311471.205 -23732934.787 7813501.245 10 0 60474 68400.00000 0 5117226.747 -22600318.273 10757713.787 10 0 60474 69300.00000 0 5018440.738 -21108113.572 13493922.753 10 0 60474 70200.00000 0 5061390.912 -19294527.312 15969314.110 10 0 60474 71100.00000 0 5284509.956 -17208113.978 18136123.014 10 0 60474 72000.00000 0 5716571.822 -14905897.197 19952536.863 10 0 60474 72900.00000 0 6375290.879 -12451157.954 21383485.463 10 0 60474 73800.00000 0 7266391.929 -9910980.080 22401304.796 10 0 60474 74700.00000 0 8383190.013 -7353652.884 22986263.074 10 0 60474 75600.00000 0 9706698.200 -4846036.278 23126939.939 10 0 60474 76500.00000 0 11206260.300 -2450995.187 22820451.988 10 0 60474 77400.00000 0 12840684.150 -225007.383 22072520.077 10 0 60474 78300.00000 0 14559830.755 1783957.997 20897376.313 10 0 60474 79200.00000 0 16306595.837 3538204.526 19317511.104 10 0 60474 80100.00000 0 18019203.897 5011642.549 17363263.248 10 0 60474 81000.00000 0 19633721.480 6190637.772 15072258.751 10 0 60474 81900.00000 0 21086686.546 7074338.449 12488706.877 10 0 60474 82800.00000 0 22317744.997 7674466.527 9662564.788 10 0 60474 83700.00000 0 23272184.131 8014580.285 6648585.000 10 0 60474 84600.00000 0 23903256.007 8128838.248 3505262.670 10 0 60474 85500.00000 0 24174191.510 8060315.453 293702.288 10 0 60475 0.00000 0 24059818.245 7858942.594 -2923574.037 10 0 60475 900.00000 0 23547711.316 7579155.103 -6083854.742 10 0 60475 1800.00000 0 22638825.997 7277352.722 -9125474.021 10 0 60475 2700.00000 0 21347582.820 7009278.191 -11989034.125 10 0 60475 3600.00000 0 19701399.338 6827428.401 -14618584.679 10 0 60475 4500.00000 0 17739686.755 6778610.002 -16962735.623 10 0 60475 5400.00000 0 15512352.759 6901745.594 -18975679.779 10 0 60475 6300.00000 0 13077873.379 7226025.876 -20618103.346 10 0 60475 7200.00000 0 10501015.369 7769488.121 -21857965.135 10 0 60475 8100.00000 0 7850305.631 8538082.773 -22671128.418 10 0 60475 9000.00000 0 5195354.889 9525268.711 -23041832.659 10 0 60475 9900.00000 0 2604148.875 10712154.686 -22962995.939 10 0 60475 10800.00000 0 140421.204 12068180.844 -22436342.737 10 0 60475 11700.00000 0 -2138781.830 13552310.908 -21472355.410 10 0 60475 12600.00000 0 -4185242.978 15114683.784 -20090051.520 10 0 60475 13500.00000 0 -5961333.748 16698653.795 -18316592.693 10 0 60475 14400.00000 0 -7441320.308 18243132.417 -16186734.110 10 0 60475 15300.00000 0 -8612163.301 19685131.902 -13742126.870 10 0 60475 16200.00000 0 -9473781.088 20962402.960 -11030488.266 10 0 60475 17100.00000 0 -10038768.678 22016055.222 -8104657.479 10 0 60475 18000.00000 0 -10331587.547 22793050.358 -5021556.233 10 0 60475 18900.00000 0 -10387263.678 23248463.679 -1841075.581 10 0 60475 19800.00000 0 -10249651.465 23347420.227 1375088.969 10 0 60475 20700.00000 0 -9969338.864 23066625.412 4564631.033 10 0 60475 21600.00000 0 -9601283.620 22395427.587 7665832.644 10 0 60475 22500.00000 0 -9202280.923 21336369.579 10618746.565 10 0 60475 23400.00000 0 -8828369.196 19905207.527 13366339.688 10 0 60475 24300.00000 0 -8532282.622 18130397.259 15855576.740 10 0 60475 25200.00000 0 -8361056.406 16052070.167 18038425.035 10 0 60475 26100.00000 0 -8353884.101 13720541.128 19872762.667 10 0 60475 27000.00000 0 -8540315.533 11194409.764 21323174.525 10 0 60475 27900.00000 0 -8938869.778 8538332.427 22361622.523 10 0 60475 28800.00000 0 -9556120.657 5820555.394 22967978.618 10 0 60475 29700.00000 0 -10386293.011 3110309.129 23130411.358 10 0 60475 30600.00000 0 -11411387.371 475168.976 22845619.020 10 0 60475 31500.00000 0 -12601829.292 -2021510.836 22118904.701 10 0 60475 32400.00000 0 -13917618.288 -4322985.801 20964091.110 10 0 60475 33300.00000 0 -15309930.885 -6381235.030 19403275.339 10 0 60475 34200.00000 0 -16723113.461 -8158713.743 17466426.448 10 0 60475 35100.00000 0 -18096984.082 -9629671.940 15190831.444 10 0 60475 36000.00000 0 -19369349.135 -10780984.072 12620397.991 10 0 60475 36900.00000 0 -20478630.748 -11612454.270 9804825.101 10 0 60475 37800.00000 0 -21366495.387 -12136583.240 6798655.885 10 0 60475 38700.00000 0 -21980372.928 -12377805.314 3660229.234 10 0 60475 39600.00000 0 -22275758.979 -12371226.579 450549.925 10 0 60475 40500.00000 0 -22218201.566 -12160916.397 -2767901.088 10 0 60475 41400.00000 0 -21784885.837 -11797824.169 -5932392.570 10 0 60475 42300.00000 0 -20965747.108 -11337409.700 -8981180.054 10 0 60475 43200.00000 0 -19764062.390 -10837088.483 -11854728.330 10 0 60475 44100.00000 0 -18196492.841 -10353601.650 -14496893.624 10 0 60475 45000.00000 0 -16292573.195 -9940424.088 -16856040.279 10 0 60475 45900.00000 0 -14093668.230 -9645322.811 -18886068.166 10 0 60475 46800.00000 0 -11651439.378 -9508171.307 -20547329.019 10 0 60475 47700.00000 0 -9025885.871 -9559114.478 -21807412.371 10 0 60475 48600.00000 0 -6283043.149 -9817163.521 -22641784.847 10 0 60475 49500.00000 0 -3492435.816 -10289281.227 -23034269.887 10 0 60475 50400.00000 0 -724392.889 -10969996.869 -22977358.567 10 0 60475 51300.00000 0 1952661.483 -11841566.777 -22472345.965 10 0 60475 52200.00000 0 4474827.977 -12874673.108 -21529291.262 10 0 60475 53100.00000 0 6785153.145 -14029630.190 -20166803.481 10 0 60475 54000.00000 0 8835751.014 -15258046.130 -18411658.436 10 0 60475 54900.00000 0 10589537.850 -16504868.132 -16298255.763 10 0 60475 55800.00000 0 12021509.528 -17710723.840 -13867928.173 10 0 60475 56700.00000 0 13119510.691 -18814458.867 -11168117.808 10 0 60475 57600.00000 0 13884466.541 -19755762.789 -8251437.101 10 0 60475 58500.00000 0 14330070.869 -20477772.597 -5174633.628 10 0 60475 59400.00000 0 14481946.756 -20929544.167 -1997479.998 10 0 60475 60300.00000 0 14376318.316 -21068288.347 1218388.999 10 0 60475 61200.00000 0 14058251.978 -20861278.642 4410669.073 10 0 60475 62100.00000 0 13579543.304 -20287351.640 7517585.972 10 0 60475 63000.00000 0 12996339.510 -19337938.618 10479079.125 10 0 60475 63900.00000 0 12366598.197 -18017586.388 13237947.429 10 0 60475 64800.00000 0 11747488.873 -16343946.644 15740936.344 10 0 60475 65700.00000 0 11192845.581 -14347234.799 17939746.942 10 0 60475 66600.00000 0 10750776.261 -12069180.900 19791949.225 10 0 60475 67500.00000 0 10461527.625 -9561515.595 21261783.979 10 0 60475 68400.00000 0 10355693.554 -6884052.733 22320839.484 10 0 60475 69300.00000 0 10452840.908 -4102446.242 22948591.491 10 0 60475 70200.00000 0 10760609.575 -1285711.883 23132797.154 10 0 60475 71100.00000 0 11274324.482 1496386.158 22869735.824 10 0 60475 72000.00000 0 11977136.508 4175978.252 22164291.939 10 0 60475 72900.00000 0 12840687.890 6689654.918 21029877.686 10 0 60475 73800.00000 0 13826276.296 8980850.789 19488195.518 10 0 60475 74700.00000 0 14886471.233 11001949.440 17568843.281 10 0 60475 75600.00000 0 15967117.548 12716022.424 15308767.369 10 0 60475 76500.00000 0 17009644.265 14098130.197 12751572.111 10 0 60475 77400.00000 0 17953583.612 15136130.025 9946696.517 10 0 60475 78300.00000 0 18739195.399 15830956.081 6948472.327 10 0 60475 79200.00000 0 19310086.493 16196358.615 3815080.099 10 0 60475 80100.00000 0 19615714.253 16258111.816 607422.737 10 0 60475 81000.00000 0 19613666.779 16052722.531 -2612061.882 10 0 60475 81900.00000 0 19271621.386 15625693.610 -5780625.632 10 0 60475 82800.00000 0 18568895.808 15029415.064 -8836447.245 10 0 60475 83700.00000 0 17497523.643 14320772.749 -11719856.090 10 0 60475 84600.00000 0 16062805.697 13558576.886 -14374516.885 10 0 60475 85500.00000 0 14283311.377 12800920.999 -16748550.099 10 0 60476 0.00000 0 12190328.289 12102585.122 -18795564.053 10 0 60476 900.00000 0 9826780.642 11512595.001 -20475577.803 10 0 60476 1800.00000 0 7245664.191 11072043.503 -21755812.710 10 0 60476 2700.00000 0 4508059.722 10812266.791 -22611339.937 10 0 60476 3600.00000 0 1680811.594 10753454.471 -23025567.957 10 0 60476 4500.00000 0 -1166031.640 10903752.560 -22990561.723 10 0 60476 5400.00000 0 -3961906.406 11258897.082 -22507187.569 10 0 60476 6300.00000 0 -6638439.917 11802392.985 -21585081.838 10 0 60476 7200.00000 0 -9132059.177 12506229.551 -20242445.012 10 0 60476 8100.00000 0 -11386394.384 13332100.457 -18505666.692 10 0 60476 9000.00000 0 -13354377.142 14233075.180 -16408790.194 10 0 60476 9900.00000 0 -14999947.286 15155649.407 -13992828.710 10 0 60476 10800.00000 0 -16299299.099 16042086.313 -11304947.793 10 0 60476 11700.00000 0 -17241617.456 16832948.638 -8397531.458 10 0 60476 12600.00000 0 -17829276.114 17469713.925 -5327151.250 10 0 60476 13500.00000 0 -18077493.073 17897362.290 -2153459.294 10 0 60476 14400.00000 0 -18013460.615 18066827.875 1061972.509 10 0 60476 15300.00000 0 -17674989.413 17937211.338 4256844.283 10 0 60476 16200.00000 0 -17108726.010 17477661.321 7369327.919 10 0 60476 17100.00000 0 -16368020.213 16668846.997 10339252.062 10 0 60476 18000.00000 0 -15510532.931 15503961.126 13109250.255 10 0 60476 18900.00000 0 -14595685.013 13989212.624 15625851.384 10 0 60476 19800.00000 0 -13682053.571 12143788.679 17840492.978 10 0 60476 20700.00000 0 -12824823.808 9999288.157 19710439.580 10 0 60476 21600.00000 0 -12073401.600 7598649.358 21199590.387 10 0 60476 22500.00000 0 -11469285.083 4994615.538 22279162.349 10 0 60476 23400.00000 0 -11044282.761 2247800.103 22928237.055 10 0 60476 24300.00000 0 -10819151.448 -575570.631 23134161.973 10 0 60476 25200.00000 0 -10802710.338 -3406146.311 22892798.834 10 0 60476 26100.00000 0 -10991468.265 -6174072.752 22208614.296 10 0 60476 27000.00000 0 -11369780.516 -8811637.683 21094610.409 10 0 60476 27900.00000 0 -11910530.004 -11255834.761 19572094.864 10 0 60476 28800.00000 0 -12576306.218 -13450741.281 17670293.657 10 0 60476 29700.00000 0 -13321034.694 -15349611.946 15425811.417 10 0 60476 30600.00000 0 -14091990.822 -16916601.945 12881947.521 10 0 60476 31500.00000 0 -14832115.240 -18128047.118 10087878.934 10 0 60476 32400.00000 0 -15482534.746 -18973246.764 7097723.613 10 0 60476 33300.00000 0 -15985183.081 -19454714.954 3969501.073 10 0 60476 34200.00000 0 -16285410.731 -19587888.217 764009.396 10 0 60476 35100.00000 0 -16334472.382 -19400300.472 -2456359.764 10 0 60476 36000.00000 0 -16091784.926 -18930258.790 -5628844.694 10 0 60476 36900.00000 0 -15526857.958 -18225075.301 -8691550.727 10 0 60476 37800.00000 0 -14620812.215 -17338929.884 -11584675.275 10 0 60476 38700.00000 0 -13367418.679 -16330454.737 -14251694.987 10 0 60476 39600.00000 0 -11773611.620 -15260144.191 -16640489.798 10 0 60476 40500.00000 0 -9859451.466 -14187701.077 -18704379.923 10 0 60476 41400.00000 0 -7657537.210 -13169433.765 -20403053.777 10 0 60476 42300.00000 0 -5211891.918 -12255815.851 -21703367.266 10 0 60476 43200.00000 0 -2576367.696 -11489313.284 -22579997.859 10 0 60476 44100.00000 0 187362.873 -10902571.879 -23015940.237 10 0 60476 45000.00000 0 3012144.051 -10517042.352 -23002833.794 10 0 60476 45900.00000 0 5827904.445 -10342100.801 -22541116.084 10 0 60476 46800.00000 0 8564346.503 -10374700.972 -21640000.049 10 0 60476 47700.00000 0 11153644.984 -10599571.591 -20317276.565 10 0 60476 48600.00000 0 13533041.488 -10989948.638 -18598947.522 10 0 60476 49500.00000 0 15647227.002 -11508809.502 -16518697.999 10 0 60476 50400.00000 0 17450413.849 -12110554.759 -14117219.362 10 0 60476 51300.00000 0 18908012.048 -12743064.476 -11441397.898 10 0 60476 52200.00000 0 19997842.184 -13350040.448 -8543386.178 10 0 60476 53100.00000 0 20710836.652 -13873534.109 -5479576.404 10 0 60476 54000.00000 0 21051202.892 -14256552.568 -2309496.704 10 0 60476 54900.00000 0 21036044.812 -14445632.528 905347.538 10 0 60476 55800.00000 0 20694461.182 -14393273.777 4102664.458 10 0 60476 56700.00000 0 20066161.345 -14060130.417 7220575.556 10 0 60476 57600.00000 0 19199658.303 -13416868.586 10198801.887 10 0 60476 58500.00000 0 18150116.232 -12445613.724 12979814.489 10 0 60476 59400.00000 0 16976943.204 -11140927.685 15509928.105 10 0 60476 60300.00000 0 15741229.711 -9510275.522 17740318.693 10 0 60476 61200.00000 0 14503139.330 -7573962.725 19627946.849 10 0 60476 62100.00000 0 13319359.256 -5364545.225 21136371.224 10 0 60476 63000.00000 0 12240715.529 -2925735.726 22236438.028 10 0 60476 63900.00000 0 11310050.796 -310850.233 22906834.841 10 0 60476 64800.00000 0 10560451.600 2419143.017 23134499.181 10 0 60476 65700.00000 0 10013898.003 5197893.972 22914874.503 10 0 60476 66600.00000 0 9680391.314 7956169.317 22252008.662 10 0 60476 67500.00000 0 9557596.393 10624478.523 21158492.214 10 0 60476 68400.00000 0 9631014.232 13135721.175 19655236.458 10 0 60476 69300.00000 0 9874678.915 15427747.843 17771093.647 10 0 60476 70200.00000 0 10252351.508 17445729.590 15542324.577 10 0 60476 71100.00000 0 10719162.708 19144238.239 13011921.424 10 0 60476 72000.00000 0 11223637.073 20488950.524 10228796.735 10 0 60476 72900.00000 0 11710015.096 21457904.177 7246852.210 10 0 60476 73800.00000 0 12120776.107 22042252.001 4123943.779 10 0 60476 74700.00000 0 12399255.619 22246480.591 920762.131 10 0 60476 75600.00000 0 12492245.746 22088082.810 -2300349.838 10 0 60476 76500.00000 0 12352467.144 21596696.260 -5476619.269 10 0 60476 77400.00000 0 11940805.577 20812742.951 -8546080.379 10 0 60476 78300.00000 0 11228215.681 19785627.096 -11448800.684 10 0 60476 79200.00000 0 10197208.322 18571567.250 -14128070.588 10 0 60476 80100.00000 0 8842855.647 17231155.215 -16531531.052 10 0 60476 81000.00000 0 7173268.628 15826746.136 -18612215.337 10 0 60476 81900.00000 0 5209524.671 14419791.744 -20329482.693 10 0 60476 82800.00000 0 2985046.753 13068231.100 -21649824.286 10 0 60476 83700.00000 0 544459.224 11824050.646 -22547524.647 10 0 60476 84600.00000 0 -2058031.946 10731117.732 -23005165.245 10 0 60476 85500.00000 0 -4760666.273 9823379.696 -23013960.284 99